[[{"header":{"parameterUnit":"m.s-1","parameterCategory":2,"la1":30.2991,"la2":30.254,"lo1":-89.0895,"lo2":-89.0444,"dy":0.0017,"dx":0.0017,"nx":28,"ny":28,"refTime":"2024-04-11T03:00:00:Z","depth":"0","parameterNumber":2,"parameterNumberName":"U-component_of_CURRENTS"},"data":[0,0,0,0,0,0,0,0,0,0,0,0,0,0,0,0,0,0,0,0,0,0,0,0,0,0,0,0,0,0,0,0,0,0,0,0,0,0,0,0,0,0,0,0,0,0,0,0,0,0,0,0,0,0,0,0,0,0,0.3009,0.3009,0,0.2997,0.2997,0.2997,0.2996,0.2997,0.2997,0.2997,0.2947,0.2945,0.2944,0,0,0,0,0,0,0,0,0,0,0,0,0,0.3098,0.3096,0.3009,0.3009,0.3009,0.2997,0.2997,0.2997,0.2996,0.2997,0.2997,0.2997,0.2947,0.2945,0.2944,0,0,0,0,0,0,0,0,0,0,0,0,0,0.307,0.3095,0.3009,0.3007,0.3007,0.2997,0.2997,0.2997,0.2996,0.2997,0.2997,0.2997,0.2948,0.2946,0.2943,0.2926,0,0,0.2937,0.2936,0,0,0,0,0,0,0,0,0.3071,0.3067,0.3008,0.3007,0.3007,0.2998,0.301,0.2971,0.2996,0.3001,0.2997,0.2997,0.296,0.2957,0.2955,0.2923,0.2921,0.2936,0.2935,0.2934,0.2934,0,0,0,0,0,0,0,0.3073,0.3068,0.3005,0.3008,0.3007,0.3029,0.3025,0.3003,0.2979,0.3,0.3,0.2998,0.296,0.2957,0.2954,0.292,0.2936,0.2935,0.2933,0.2932,0.2908,0.2909,0,0,0,0,0,0,0.307,0.3069,0.3005,0.3004,0.304,0.3027,0.3022,0.3001,0.298,0.2977,0.2998,0.2998,0.2961,0.2956,0.2952,0.2957,0.2934,0.2932,0.2931,0.2907,0.2908,0.2909,0,0,0,0,0,0,0.3072,0.3064,0.3006,0.3038,0.3032,0.3025,0.3001,0.3001,0.3,0.2979,0.2975,0.2999,0.2961,0.2955,0.2943,0.2954,0.2931,0.2929,0.2907,0.2908,0.2909,0.2949,0,0,0,0,0,0,0.3074,0.3064,0.305,0.3037,0.303,0.3004,0.3001,0.3,0.2999,0.2999,0.2978,0.2973,0.296,0.2946,0.2941,0.295,0.2927,0.2906,0.2907,0.2908,0.2946,0.2951,0.2955,0,0,0,0,0,0.3077,0.3062,0.3049,0.3042,0.3009,0.3004,0.3003,0.3,0.2999,0.3,0.2991,0.2974,0.2951,0.2945,0.2938,0.2947,0.2905,0.2907,0.2908,0.2945,0.295,0.2955,0,0,0,0,0,0,0.3084,0.3059,0.3046,0.3019,0.3013,0.3004,0.3006,0.3001,0.2995,0.2994,0.2976,0.2971,0.2968,0.295,0.2945,0.2946,0.2928,0.2928,0.2958,0.2962,0.2966,0.2951,0.2926,0,0,0,0,0,0.3079,0.3067,0.3044,0.3026,0.3021,0.3012,0.301,0.3006,0.2999,0.2997,0.2984,0.2973,0.2969,0.296,0.2951,0.2941,0.2926,0.2946,0.295,0.2953,0.2938,0.294,0.2943,0.2914,0.2914,0.2914,0,0,0.3075,0.3062,0.3052,0.3028,0.3022,0.3014,0.3012,0.3009,0.3008,0.299,0.2988,0.2985,0.2971,0.2971,0.2968,0.2956,0.2956,0.2955,0.2958,0.294,0.2942,0.2945,0.2947,0.2915,0.2915,0.2915,0,0,0.3069,0.3049,0.3038,0.3038,0.303,0.3022,0.3021,0.3012,0.3015,0.3014,0.3007,0.3006,0.2996,0.2988,0.2983,0.2999,0.2981,0.3005,0.3007,0.3011,0.3013,0.3014,0.3006,0.3007,0.3004,0.3004,0.3004,0,0.3062,0.3041,0.3037,0.3035,0.3033,0.3024,0.3015,0.3018,0.3009,0.3015,0.3019,0.3024,0.3003,0.3007,0.3009,0.3006,0.3004,0.2991,0.3016,0.3017,0.3018,0.3009,0.3009,0.3006,0.3005,0.3005,0.3005,0,0.3051,0.304,0.304,0.3027,0.3026,0.3022,0.3019,0.3021,0.3026,0.3033,0.3051,0.3044,0.3047,0.3046,0.3025,0.3027,0.3023,0.3025,0.3002,0.3023,0.3012,0.3012,0.3009,0.3008,0.3007,0.3007,0,0,0.3003,0.3025,0.302,0.3024,0.3023,0.3018,0.3022,0.3021,0.3035,0.3048,0.3079,0.3062,0.3074,0.3067,0.306,0.3047,0.3045,0.3032,0.3032,0.3022,0.3048,0.2986,0.2979,0.3059,0.3059,0.3059,0.3041,0,0.2986,0.2987,0.3,0.2997,0.2994,0.3005,0.3012,0.302,0.304,0.3074,0.3089,0.3117,0.3082,0.3099,0.3082,0.3064,0.3043,0.3048,0.303,0.3029,0.2969,0.2976,0.2843,0.281,0.304,0.304,0.304,0,0.2955,0.2964,0.2963,0.2989,0.2988,0.2989,0.3005,0.3016,0.3061,0.309,0.3126,0.3155,0.3154,0.3133,0.3098,0.3108,0.3066,0.3044,0.3044,0.2964,0.2964,0.2825,0.28,0.275,0.3038,0.3038,0.3039,0,0.2916,0.2932,0.2933,0.2942,0.297,0.2975,0.2983,0.3016,0.3043,0.311,0.315,0.3177,0.3196,0.3167,0.3116,0.3114,0.3079,0.3079,0.298,0.2976,0.2843,0.2827,0.2758,0.3036,0.3036,0.3036,0.3036,0,0.2886,0.2883,0.292,0.2925,0.2931,0.2958,0.2984,0.3001,0.3064,0.3089,0.3157,0.319,0.3202,0.3196,0.3142,0.3057,0.3101,0.2967,0.2963,0.2855,0.284,0.2774,0.2761,0.3035,0.3035,0.3035,0.3036,0,0.2835,0.2862,0.2869,0.2903,0.2915,0.2917,0.2976,0.2995,0.3058,0.3099,0.3127,0.3203,0.3181,0.3177,0.3132,0.3075,0.2922,0.2967,0.2834,0.2813,0.2664,0.2658,0.2459,0.2397,0.2857,0.2855,0.2854,0,0.2805,0.2809,0.2846,0.2849,0.2863,0.289,0.2904,0.2976,0.3003,0.3083,0.3094,0.313,0.3109,0.3059,0.2981,0.2895,0.2827,0.2727,0.2681,0.2622,0.2615,0.2526,0.2484,0.2528,0.2524,0.2521,0.2519,0,0.2756,0.2776,0.2789,0.2792,0.2805,0.2826,0.2855,0.2878,0.2943,0.2963,0.2959,0.2959,0.2936,0.2809,0.275,0.2685,0.26,0.2655,0.2626,0.2365,0.2229,0.2179,0.2583,0.2489,0.2492,0.2494,0.2496,0.2497,0.2714,0.2708,0.2728,0.2713,0.2728,0.2716,0.2684,0.2716,0.2715,0.267,0.2768,0.2684,0.2655,0.2552,0.2494,0.2348,0.2363,0.2252,0.2255,0.2176,0.2081,0.2415,0.2302,0.2303,0.2305,0.2306,0.2308,0,0.263,0.2635,0.264,0.2611,0.2566,0.2613,0.2604,0.2529,0.2439,0.2453,0.2401,0.2319,0.2215,0.2192,0.2073,0.1972,0.1892,0.192,0.1777,0.1764,0.2083,0.2037,0.1822,0.1822,0.1822,0.1822,0.1822,0.1822,0.259,0.2551,0.2546,0.2441,0.2416,0.2307,0.2261,0.2159,0.2129,0.1982,0.1915,0.1922,0.1977,0.1892,0.1764,0.1718,0.1616,0.1495,0.1551,0.1807,0.1839,0.187,0.1824,0.1567,0.1567,0.1136,0.1133,0.1131]},{"header":{"parameterUnit":"m.s-1","parameterCategory":2,"la1":30.2991,"la2":30.254,"lo1":-89.0895,"lo2":-89.0444,"dy":0.0017,"dx":0.0017,"nx":28,"ny":28,"refTime":"2024-04-11T03:00:00:Z","depth":"0","parameterNumber":3,"parameterNumberName":"V-component_of_CURRENTS"},"data":[0,0,0,0,0,0,0,0,0,0,0,0,0,0,0,0,0,0,0,0,0,0,0,0,0,0,0,0,0,0,0,0,0,0,0,0,0,0,0,0,0,0,0,0,0,0,0,0,0,0,0,0,0,0,0,0,0,0,0.0068,0.0068,0,0.0067,0.0067,0.0067,0.0045,0.0045,0.0044,0.0044,0.0018,0.0017,0.0017,0,0,0,0,0,0,0,0,0,0,0,0,0,0.0017,0.0018,0.0068,0.0068,0.0068,0.0067,0.0067,0.0067,0.0045,0.0045,0.0044,0.0044,0.0018,0.0017,0.0017,0,0,0,0,0,0,0,0,0,0,0,0,0,0.0027,0.0018,0.0068,0.006,0.0059,0.0067,0.0067,0.0066,0.0045,0.0045,0.0044,0.0044,0.0018,0.0017,0.0017,0.002,0,0,0.0014,0.0014,0,0,0,0,0,0,0,0,0.0026,0.0028,0.0061,0.006,0.006,0.0059,0.0039,0.0051,0.0045,0.0047,0.0044,0.0044,0.0031,0.003,0.0026,0.0019,0.0018,0.0014,0.0014,0.0014,0.0013,0,0,0,0,0,0,0,0.0026,0.0028,0.0064,0.0061,0.0061,0.0045,0.0046,0.0041,0.0038,0.0047,0.0046,0.0051,0.0031,0.0027,0.0025,0.0017,0.0014,0.0014,0.0013,0.0013,0.0019,0.002,0,0,0,0,0,0,0.0035,0.0028,0.0064,0.0064,0.0046,0.0047,0.0048,0.0057,0.0039,0.0037,0.0052,0.005,0.0028,0.0026,0.0024,0.0038,0.0014,0.0013,0.0013,0.0019,0.002,0.002,0,0,0,0,0,0,0.0034,0.0038,0.0064,0.0048,0.0051,0.0049,0.0059,0.0057,0.0057,0.0044,0.004,0.0055,0.0028,0.0025,0.0025,0.0037,0.0013,0.0012,0.0018,0.0019,0.002,0.006,0,0,0,0,0,0,0.0032,0.0038,0.0044,0.0049,0.0052,0.0076,0.0059,0.0057,0.0063,0.0061,0.0045,0.0042,0.0027,0.0026,0.0024,0.0035,0.0012,0.0017,0.0019,0.002,0.0058,0.0062,0.0065,0,0,0,0,0,0.0031,0.0047,0.0044,0.0049,0.0062,0.0077,0.0077,0.0071,0.0063,0.0068,0.0056,0.0043,0.0032,0.0026,0.0024,0.0035,0.0017,0.0018,0.0019,0.0056,0.0061,0.0065,0,0,0,0,0,0,0.0034,0.0047,0.0044,0.0064,0.0073,0.0075,0.0082,0.0077,0.0072,0.0069,0.005,0.0047,0.005,0.0039,0.0033,0.004,0.0022,0.0023,0.0051,0.0055,0.0059,0.0074,0.0011,0,0,0,0,0,0.0037,0.0049,0.006,0.0076,0.0083,0.0082,0.0087,0.0085,0.0084,0.0081,0.0069,0.0058,0.0054,0.0052,0.0044,0.005,0.0047,0.0055,0.0059,0.0062,0.0074,0.0087,0.0094,0.0025,0.0024,0.0024,0,0,0.0046,0.0053,0.0061,0.0077,0.0082,0.0102,0.0084,0.0098,0.0113,0.0079,0.0089,0.0071,0.0058,0.0062,0.0063,0.0055,0.0078,0.0064,0.0067,0.0077,0.0089,0.0096,0.0102,0.0025,0.0025,0.0025,0,0,0.0075,0.0075,0.0096,0.0104,0.0117,0.0119,0.0126,0.013,0.0129,0.0138,0.0117,0.011,0.0102,0.0094,0.009,0.0114,0.0098,0.0107,0.014,0.0153,0.0159,0.0164,0.0161,0.0165,0.0109,0.011,0.011,0,0.0083,0.0113,0.0105,0.0128,0.0142,0.0131,0.0161,0.016,0.0162,0.0167,0.0149,0.0143,0.0121,0.0137,0.0135,0.0124,0.0122,0.0122,0.0159,0.0164,0.0169,0.0164,0.0169,0.0112,0.0111,0.0111,0.0111,0,0.0131,0.015,0.0165,0.0188,0.02,0.0223,0.0227,0.0233,0.0226,0.0224,0.0234,0.0206,0.0207,0.0192,0.0166,0.0188,0.0172,0.0162,0.0149,0.0179,0.0171,0.0175,0.0115,0.0114,0.0113,0.0113,0,0,0.0163,0.0193,0.02,0.0219,0.0234,0.0253,0.0275,0.0297,0.0321,0.0304,0.0341,0.0305,0.0287,0.0281,0.0251,0.0248,0.0261,0.0216,0.0216,0.0215,0.028,0.027,0.0273,0.0258,0.0259,0.026,0.0258,0,0.0205,0.0259,0.0262,0.0312,0.0341,0.0335,0.0361,0.0373,0.0375,0.0403,0.0377,0.0395,0.0325,0.033,0.0315,0.0283,0.0275,0.0262,0.025,0.0249,0.0239,0.0279,0.0289,0.0289,0.0262,0.0263,0.0263,0,0.0255,0.0283,0.034,0.0379,0.0393,0.0418,0.0459,0.0483,0.0504,0.0509,0.0512,0.0496,0.0489,0.0434,0.0393,0.0387,0.0336,0.0302,0.0301,0.0284,0.0247,0.0257,0.0298,0.0241,0.0269,0.0269,0.0268,0,0.0288,0.0339,0.0386,0.0399,0.044,0.0465,0.049,0.0514,0.0556,0.0586,0.0624,0.0599,0.061,0.0552,0.0461,0.0435,0.0421,0.0382,0.0323,0.0321,0.0325,0.0321,0.0315,0.0362,0.0362,0.0362,0.0362,0,0.0332,0.037,0.0406,0.0433,0.0498,0.0507,0.0579,0.0597,0.0652,0.0722,0.0685,0.0742,0.0641,0.0615,0.0516,0.0439,0.0465,0.0343,0.033,0.0337,0.0335,0.028,0.0241,0.0362,0.0362,0.0362,0.0362,0,0.0364,0.0386,0.0444,0.0494,0.0517,0.0565,0.0648,0.0701,0.0738,0.0836,0.0859,0.0861,0.0827,0.0717,0.0629,0.0522,0.0414,0.0405,0.0409,0.0397,0.0281,0.0243,0.0225,0.0208,0.0349,0.0349,0.0348,0,0.0387,0.0418,0.0491,0.0535,0.0562,0.0633,0.0691,0.0745,0.0814,0.0918,0.0981,0.0978,0.0995,0.0855,0.0676,0.0521,0.0435,0.0411,0.0361,0.0293,0.0242,0.0212,0.0197,0.0374,0.0374,0.0374,0.0374,0,0.0429,0.0452,0.05,0.059,0.0657,0.0742,0.0831,0.0905,0.0985,0.107,0.1179,0.1205,0.1077,0.0939,0.0712,0.0588,0.0385,0.0408,0.0349,0.0279,0.0237,0.0208,0.034,0.0375,0.0375,0.0375,0.0375,0.0375,0.0461,0.0502,0.0566,0.0653,0.0735,0.0846,0.093,0.1031,0.116,0.1292,0.1311,0.1359,0.1159,0.0863,0.0695,0.0401,0.0398,0.0304,0.0268,0.0247,0.0227,0.0352,0.0365,0.0365,0.0365,0.0365,0.0365,0,0.0501,0.0549,0.0628,0.0735,0.083,0.087,0.1021,0.1111,0.1266,0.137,0.1452,0.1392,0.1145,0.0871,0.0486,0.0297,0.0224,0.0198,0.0162,0.0155,0.0281,0.0278,0.026,0.026,0.026,0.026,0.026,0.026,0.0526,0.06,0.0639,0.0794,0.0876,0.1018,0.1111,0.1237,0.134,0.1471,0.1505,0.1519,0.1346,0.0689,0.0279,0.0182,0.0075,0.0043,-0.0001,0.0078,0.0086,0.0092,0.0081,0.0021,0.0021,-0.0103,-0.0104,-0.0105]}],[{"header":{"parameterUnit":"m.s-1","parameterCategory":2,"la1":30.2991,"la2":30.254,"lo1":-89.0895,"lo2":-89.0444,"dy":0.0017,"dx":0.0017,"nx":28,"ny":28,"refTime":"2024-04-11T03:00:00:Z","depth":"2","parameterNumber":2,"parameterNumberName":"U-component_of_CURRENTS"},"data":[0,0,0,0,0,0,0,0,0,0,0,0,0,0,0,0,0,0,0,0,0,0,0,0,0,0,0,0,0,0,0,0,0,0,0,0,0,0,0,0,0,0,0,0,0,0,0,0,0,0,0,0,0,0,0,0,0,0,0.2099,0.2099,0,0.212,0.2121,0.2121,0.2131,0.2131,0.2131,0.2131,0.2124,0.2123,0.2123,0,0,0,0,0,0,0,0,0,0,0,0,0,0.2061,0.2062,0.2099,0.2099,0.2099,0.212,0.2121,0.2121,0.2131,0.2131,0.2131,0.2131,0.2124,0.2123,0.2123,0,0,0,0,0,0,0,0,0,0,0,0,0,0.2079,0.2062,0.2099,0.2108,0.2109,0.212,0.2121,0.2121,0.2131,0.2131,0.2131,0.2131,0.2124,0.2123,0.2123,0.2119,0,0,0.2122,0.2122,0,0,0,0,0,0,0,0,0.2078,0.208,0.2106,0.2107,0.2108,0.2124,0.2105,0.2119,0.2131,0.2122,0.2131,0.2131,0.2122,0.2121,0.2124,0.2118,0.2118,0.2122,0.2122,0.2121,0.2121,0,0,0,0,0,0,0,0.2077,0.2079,0.2106,0.2106,0.2108,0.2109,0.2112,0.2108,0.2119,0.2122,0.2123,0.2127,0.2122,0.2125,0.2124,0.2118,0.2122,0.2122,0.2121,0.2121,0.2148,0.2149,0,0,0,0,0,0,0.2076,0.2078,0.2106,0.2107,0.2094,0.211,0.2112,0.2118,0.212,0.2121,0.2127,0.2128,0.2125,0.2125,0.2124,0.2145,0.2121,0.2121,0.2121,0.2147,0.2148,0.215,0,0,0,0,0,0,0.2075,0.2078,0.2105,0.2094,0.2097,0.211,0.2116,0.2118,0.2124,0.2124,0.2124,0.2131,0.2125,0.2124,0.2119,0.2144,0.2121,0.2121,0.2146,0.2148,0.2149,0.2171,0,0,0,0,0,0,0.2074,0.2078,0.2086,0.2094,0.2098,0.2108,0.2116,0.2119,0.2127,0.2128,0.2128,0.2127,0.2125,0.2119,0.2118,0.2143,0.212,0.2145,0.2147,0.2149,0.2169,0.2173,0.2176,0,0,0,0,0,0.2073,0.2079,0.2086,0.2089,0.2107,0.2108,0.211,0.2119,0.2127,0.2126,0.2127,0.2127,0.2131,0.2119,0.2118,0.2143,0.2144,0.2146,0.2148,0.2167,0.2172,0.2176,0,0,0,0,0,0,0.2069,0.2081,0.2088,0.21,0.2103,0.211,0.2121,0.2121,0.2122,0.2133,0.2124,0.2123,0.2137,0.2132,0.2119,0.2159,0.2144,0.2146,0.2159,0.2163,0.2167,0.2186,0.212,0,0,0,0,0,0.2071,0.2079,0.2088,0.2097,0.2105,0.2113,0.2118,0.2125,0.2127,0.2129,0.2132,0.214,0.2146,0.2145,0.2153,0.2159,0.2163,0.218,0.2184,0.2187,0.2203,0.222,0.2226,0.2157,0.2157,0.2156,0,0,0.2068,0.2081,0.2083,0.2096,0.2109,0.2115,0.2117,0.2132,0.2137,0.2128,0.2143,0.2152,0.2151,0.2167,0.2174,0.2163,0.2208,0.219,0.2192,0.2207,0.2223,0.2229,0.2235,0.2158,0.2158,0.2158,0,0,0.2064,0.2086,0.2088,0.2093,0.2113,0.2126,0.2129,0.2145,0.2154,0.2167,0.2168,0.2187,0.2195,0.2201,0.2202,0.2229,0.223,0.2238,0.2265,0.2281,0.2287,0.2292,0.2298,0.2303,0.2235,0.2235,0.2235,0,0.2065,0.2072,0.2087,0.2091,0.2103,0.2129,0.2136,0.2146,0.2157,0.2171,0.2179,0.2219,0.2216,0.2231,0.2248,0.2239,0.2244,0.2244,0.2286,0.2291,0.2296,0.23,0.2306,0.2237,0.2236,0.2236,0.2236,0,0.2059,0.2065,0.2073,0.2091,0.2102,0.2118,0.2138,0.2158,0.2189,0.2207,0.2246,0.2255,0.2277,0.2285,0.2275,0.2311,0.2302,0.229,0.2272,0.2304,0.2307,0.2312,0.2238,0.2238,0.2238,0.2237,0,0,0.206,0.2068,0.207,0.207,0.211,0.2113,0.2144,0.2175,0.2205,0.2239,0.2277,0.2302,0.2327,0.2331,0.2327,0.2348,0.2382,0.2339,0.2339,0.2341,0.2415,0.233,0.2328,0.2376,0.2378,0.2379,0.2399,0,0.2057,0.2056,0.207,0.2073,0.2078,0.2115,0.2143,0.2176,0.2223,0.2269,0.2302,0.2344,0.2334,0.236,0.2376,0.2391,0.2401,0.2378,0.2388,0.2388,0.2306,0.2333,0.2151,0.2148,0.2404,0.2405,0.2406,0,0.2041,0.2049,0.2053,0.2067,0.2078,0.2099,0.2164,0.2183,0.2255,0.2297,0.2348,0.2381,0.2422,0.2414,0.2449,0.2436,0.243,0.2437,0.2437,0.2358,0.2314,0.216,0.2148,0.2415,0.2414,0.2414,0.2413,0,0.2018,0.2026,0.2034,0.2038,0.2073,0.2101,0.2136,0.2206,0.2245,0.2322,0.2379,0.2421,0.2465,0.2474,0.2486,0.2475,0.2524,0.2501,0.2415,0.2408,0.2257,0.2234,0.2521,0.2521,0.2521,0.2521,0.2521,0,0.1999,0.1999,0.2027,0.2028,0.206,0.2091,0.2149,0.2189,0.2281,0.2324,0.2391,0.2433,0.2488,0.2518,0.2508,0.2479,0.2533,0.2431,0.2412,0.2257,0.2236,0.2472,0.2466,0.2521,0.2521,0.2521,0.2521,0,0.1958,0.1979,0.1976,0.2021,0.2043,0.2063,0.2154,0.2193,0.2287,0.2348,0.238,0.247,0.2496,0.2529,0.2552,0.2502,0.2487,0.2456,0.2268,0.2226,0.2355,0.235,0.2366,0.2363,0.2361,0.2359,0.2357,0,0.1932,0.1926,0.1958,0.1976,0.2004,0.2053,0.2095,0.2187,0.2224,0.2342,0.2357,0.244,0.2443,0.2461,0.2409,0.2374,0.2435,0.2172,0.2112,0.2361,0.2341,0.234,0.2338,0.1921,0.1915,0.1911,0.1908,0,0.1886,0.1902,0.1914,0.194,0.1978,0.2003,0.2063,0.2093,0.218,0.2236,0.2275,0.2302,0.2326,0.2207,0.2185,0.2134,0.2165,0.2084,0.2401,0.1984,0.1941,0.1922,0.1935,0.1871,0.1875,0.1877,0.1879,0.1881,0.1861,0.185,0.1869,0.1887,0.1925,0.1926,0.1914,0.1964,0.199,0.2016,0.2108,0.2076,0.2084,0.1948,0.1866,0.1803,0.1947,0.1846,0.1859,0.1876,0.1817,0.1772,0.1659,0.1661,0.1663,0.1665,0.1667,0,0.1795,0.1797,0.1814,0.1812,0.1805,0.1858,0.1864,0.182,0.1778,0.1833,0.1844,0.1683,0.1601,0.1615,0.146,0.1432,0.1424,0.1369,0.1348,0.1386,0.1419,0.1337,0.1052,0.105,0.1048,0.1046,0,0,0.1757,0.1742,0.1735,0.1689,0.1694,0.1635,0.1608,0.1555,0.1552,0.1488,0.146,0.1562,0.1589,0.132,0.1265,0.1136,0.1259,0.1088,0.1584,0.1601,0.1633,0.1697,0.1613,0,0,0,0,0]},{"header":{"parameterUnit":"m.s-1","parameterCategory":2,"la1":30.2991,"la2":30.254,"lo1":-89.0895,"lo2":-89.0444,"dy":0.0017,"dx":0.0017,"nx":28,"ny":28,"refTime":"2024-04-11T03:00:00:Z","depth":"2","parameterNumber":3,"parameterNumberName":"V-component_of_CURRENTS"},"data":[0,0,0,0,0,0,0,0,0,0,0,0,0,0,0,0,0,0,0,0,0,0,0,0,0,0,0,0,0,0,0,0,0,0,0,0,0,0,0,0,0,0,0,0,0,0,0,0,0,0,0,0,0,0,0,0,0,0,0.0225,0.0225,0,0.0226,0.0226,0.0226,0.0212,0.0212,0.0212,0.0212,0.0186,0.0186,0.0185,0,0,0,0,0,0,0,0,0,0,0,0,0,0.0179,0.018,0.0225,0.0225,0.0225,0.0226,0.0226,0.0226,0.0212,0.0212,0.0212,0.0212,0.0186,0.0186,0.0185,0,0,0,0,0,0,0,0,0,0,0,0,0,0.019,0.018,0.0225,0.022,0.022,0.0226,0.0226,0.0226,0.0212,0.0212,0.0212,0.0212,0.0187,0.0186,0.0185,0.0187,0,0,0.0183,0.0183,0,0,0,0,0,0,0,0,0.0189,0.0191,0.022,0.022,0.022,0.0221,0.0201,0.0212,0.0213,0.0213,0.0212,0.0211,0.0197,0.0195,0.0194,0.0186,0.0185,0.0183,0.0182,0.0182,0.0182,0,0,0,0,0,0,0,0.0188,0.0191,0.0223,0.0221,0.0221,0.0207,0.0208,0.0203,0.0205,0.0213,0.0213,0.0216,0.0196,0.0195,0.0193,0.0184,0.0183,0.0182,0.0182,0.0182,0.0178,0.0178,0,0,0,0,0,0,0.0194,0.019,0.0223,0.0224,0.0206,0.0209,0.021,0.0219,0.0205,0.0204,0.0216,0.0215,0.0196,0.0194,0.0192,0.0201,0.0182,0.0181,0.0181,0.0177,0.0178,0.0178,0,0,0,0,0,0,0.0193,0.0198,0.0223,0.0208,0.0211,0.021,0.022,0.0219,0.0221,0.0208,0.0206,0.022,0.0196,0.0193,0.0195,0.02,0.0181,0.018,0.0177,0.0178,0.0178,0.0214,0,0,0,0,0,0,0.0192,0.0197,0.0204,0.0209,0.0212,0.0234,0.0221,0.022,0.0224,0.0223,0.021,0.0207,0.0195,0.0196,0.0194,0.0198,0.018,0.0177,0.0177,0.0178,0.0212,0.0216,0.0218,0,0,0,0,0,0.0191,0.0204,0.0205,0.0208,0.0222,0.0234,0.0235,0.0231,0.0225,0.023,0.0223,0.0208,0.0198,0.0196,0.0194,0.0198,0.0176,0.0177,0.0178,0.0211,0.0215,0.0218,0,0,0,0,0,0,0.0189,0.0204,0.0205,0.0223,0.0231,0.0233,0.0237,0.0236,0.0234,0.023,0.0216,0.0213,0.0215,0.0203,0.0201,0.0198,0.0183,0.0184,0.0209,0.0213,0.0216,0.0222,0.0179,0,0,0,0,0,0.0193,0.0206,0.0217,0.0231,0.0236,0.0237,0.0241,0.0239,0.0239,0.0238,0.023,0.022,0.0216,0.0213,0.0205,0.0207,0.0194,0.0206,0.0209,0.0212,0.0215,0.0212,0.0215,0.0181,0.0181,0.0181,0,0,0.0197,0.0206,0.0214,0.0231,0.0234,0.025,0.0238,0.0246,0.0259,0.0235,0.0246,0.0231,0.0219,0.022,0.0219,0.0212,0.0213,0.0213,0.0216,0.0217,0.0213,0.0216,0.0219,0.0181,0.0181,0.0181,0,0,0.0213,0.0219,0.0236,0.0246,0.0256,0.0258,0.0263,0.0268,0.027,0.0278,0.0263,0.0255,0.0249,0.0241,0.0236,0.0252,0.023,0.0246,0.0267,0.0264,0.0266,0.0269,0.025,0.025,0.0248,0.0248,0.0248,0,0.0214,0.0243,0.0243,0.0262,0.0274,0.0265,0.0288,0.029,0.0295,0.0299,0.0286,0.0277,0.0259,0.0267,0.0267,0.0259,0.0249,0.0255,0.0268,0.027,0.0272,0.0252,0.0252,0.025,0.0249,0.0249,0.0249,0,0.0248,0.0268,0.0279,0.0302,0.0313,0.0329,0.0336,0.0342,0.0337,0.0337,0.034,0.0318,0.0314,0.0303,0.0287,0.0293,0.0278,0.0273,0.026,0.0278,0.0255,0.0254,0.0252,0.0252,0.0251,0.0251,0,0,0.0258,0.0295,0.03,0.0322,0.0336,0.0353,0.037,0.0388,0.0407,0.0391,0.0415,0.0386,0.0368,0.0362,0.034,0.0328,0.0321,0.0306,0.0305,0.0289,0.0303,0.0283,0.028,0.0321,0.0321,0.0321,0.0279,0,0.0285,0.0332,0.0343,0.0387,0.0412,0.0411,0.0434,0.0443,0.0446,0.0463,0.0435,0.0445,0.0395,0.0396,0.0375,0.0342,0.0322,0.0332,0.0287,0.0285,0.0267,0.028,0.0285,0.0248,0.0279,0.0279,0.0278,0,0.0318,0.0347,0.0395,0.0439,0.045,0.0471,0.0506,0.0527,0.0538,0.054,0.0532,0.0515,0.0495,0.0456,0.0396,0.0406,0.0355,0.032,0.0318,0.0287,0.0264,0.0237,0.0246,0.0277,0.0277,0.0277,0.0277,0,0.0337,0.0386,0.0427,0.0442,0.0484,0.0505,0.0527,0.0546,0.0582,0.0594,0.0618,0.0581,0.058,0.0513,0.0426,0.0417,0.036,0.0342,0.0272,0.027,0.0259,0.0255,0.0301,0.0301,0.0301,0.0301,0.0301,0,0.0366,0.04,0.044,0.0466,0.052,0.0535,0.0594,0.0608,0.0648,0.0701,0.0661,0.069,0.0596,0.0551,0.0457,0.0361,0.0381,0.0277,0.0262,0.027,0.0268,0.0282,0.0281,0.0299,0.03,0.03,0.03,0,0.0384,0.0408,0.0463,0.0514,0.0533,0.0574,0.065,0.0697,0.0718,0.0789,0.0801,0.078,0.0717,0.0611,0.0507,0.0412,0.0318,0.0277,0.0282,0.0268,0.0219,0.022,0.0199,0.0198,0.0197,0.0196,0.0196,0,0.0399,0.0427,0.05,0.054,0.0567,0.063,0.0683,0.0729,0.079,0.0846,0.0889,0.0852,0.0834,0.0662,0.0496,0.0335,0.0314,0.0227,0.0208,0.0223,0.0211,0.0213,0.0215,0.0202,0.0201,0.0201,0.0201,0,0.0428,0.0452,0.05,0.0582,0.0646,0.0725,0.0803,0.0862,0.0927,0.0976,0.1025,0.1013,0.0859,0.0698,0.0476,0.036,0.0252,0.0214,0.0242,0.0228,0.0223,0.0212,0.0214,0.0197,0.0198,0.0198,0.0198,0.0198,0.0451,0.0489,0.0554,0.0631,0.0709,0.0808,0.0876,0.096,0.105,0.1123,0.1112,0.1084,0.0913,0.0623,0.0433,0.0227,0.024,0.0158,0.016,0.0163,0.0172,0.0166,0.0131,0.013,0.013,0.013,0.013,0,0.0483,0.0528,0.06,0.0699,0.0785,0.0824,0.0949,0.1013,0.1111,0.1168,0.1192,0.1014,0.0839,0.0637,0.0339,0.0164,0.0148,0.0098,0.0123,0.0127,0.0131,0.014,0.0089,0.0088,0.0088,0.0087,0,0,0.0503,0.057,0.0606,0.0741,0.0813,0.0928,0.0999,0.1081,0.1143,0.1183,0.1165,0.1133,0.09,0.0675,0.0439,0.0269,0.0236,0.0225,0.0276,0.0339,0.0345,0.0181,0.0202,0,0,0,0,0]}],[{"header":{"parameterUnit":"m.s-1","parameterCategory":2,"la1":30.2991,"la2":30.254,"lo1":-89.0895,"lo2":-89.0444,"dy":0.0017,"dx":0.0017,"nx":28,"ny":28,"refTime":"2024-04-11T03:00:00:Z","depth":"4","parameterNumber":2,"parameterNumberName":"U-component_of_CURRENTS"},"data":[0,0,0,0,0,0,0,0,0,0,0,0,0,0,0,0,0,0,0,0,0,0,0,0,0,0,0,0,0,0,0,0,0,0,0,0,0,0,0,0,0,0,0,0,0,0,0,0,0,0,0,0,0,0,0,0,0,0,0.1015,0.1015,0,0.1062,0.1063,0.1063,0.1088,0.1088,0.1089,0.1089,0.1174,0.1176,0.1178,0,0,0,0,0,0,0,0,0,0,0,0,0,0.092,0.0921,0.1014,0.1015,0.1016,0.1062,0.1063,0.1063,0.1088,0.1088,0.1089,0.1089,0.1173,0.1176,0.1178,0,0,0,0,0,0,0,0,0,0,0,0,0,0.096,0.0922,0.1014,0.1037,0.104,0.1062,0.1063,0.1063,0.1088,0.1088,0.1089,0.109,0.1173,0.1175,0.1178,0.1183,0,0,0.1187,0.1188,0,0,0,0,0,0,0,0,0.0958,0.0963,0.1033,0.1036,0.1039,0.1073,0.1061,0.1106,0.1088,0.1066,0.1089,0.109,0.1146,0.1151,0.1152,0.1187,0.1191,0.1187,0.1189,0.119,0.1191,0,0,0,0,0,0,0,0.0955,0.0961,0.1029,0.1034,0.1038,0.1037,0.1043,0.1069,0.1099,0.1067,0.107,0.1082,0.1147,0.1149,0.1155,0.1192,0.1187,0.1189,0.1191,0.1192,0.1312,0.1314,0,0,0,0,0,0,0.0958,0.0958,0.1028,0.1031,0.1004,0.1039,0.1045,0.1058,0.1098,0.1106,0.1081,0.1083,0.1144,0.1151,0.1158,0.1229,0.119,0.1193,0.1194,0.1311,0.1313,0.1314,0,0,0,0,0,0,0.0956,0.0964,0.1026,0.0999,0.1007,0.104,0.1054,0.1059,0.1086,0.1109,0.1117,0.1107,0.1145,0.1154,0.1206,0.1231,0.1194,0.1196,0.1309,0.1311,0.1314,0.1333,0,0,0,0,0,0,0.0953,0.0962,0.0983,0.0999,0.1009,0.105,0.1054,0.106,0.1093,0.1096,0.1133,0.114,0.1146,0.1202,0.1209,0.1234,0.1199,0.1307,0.131,0.1313,0.133,0.1335,0.134,0,0,0,0,0,0.0949,0.0968,0.0984,0.0993,0.1033,0.1051,0.1055,0.1078,0.1094,0.1104,0.1139,0.114,0.1225,0.1205,0.1213,0.124,0.1306,0.1309,0.1313,0.1328,0.1334,0.1339,0,0,0,0,0,0,0.0936,0.0973,0.0991,0.1021,0.1042,0.1057,0.1077,0.1092,0.1126,0.1142,0.1159,0.1169,0.1223,0.1233,0.1211,0.1284,0.1266,0.1271,0.1275,0.1281,0.1285,0.1279,0.1201,0,0,0,0,0,0.0945,0.097,0.0999,0.1024,0.104,0.1064,0.108,0.1097,0.1125,0.1141,0.1168,0.1204,0.1238,0.1261,0.1289,0.133,0.1342,0.1353,0.1358,0.1362,0.1363,0.1409,0.1418,0.1325,0.1325,0.1325,0,0,0.0944,0.0971,0.0984,0.1024,0.1045,0.1066,0.1075,0.1107,0.113,0.1147,0.1194,0.1224,0.1254,0.1299,0.1324,0.1313,0.1395,0.1366,0.1369,0.1368,0.1413,0.1422,0.143,0.1328,0.1327,0.1327,0,0,0.0948,0.0984,0.1005,0.1026,0.1069,0.1085,0.1101,0.1133,0.1156,0.1204,0.1224,0.1269,0.1321,0.1341,0.136,0.141,0.142,0.1427,0.1445,0.1489,0.1497,0.1504,0.1527,0.1536,0.1428,0.1428,0.1428,0,0.0955,0.0982,0.1012,0.1037,0.1059,0.1096,0.1118,0.1144,0.119,0.1213,0.1227,0.1311,0.1338,0.1387,0.1408,0.142,0.1443,0.1417,0.1494,0.1501,0.1508,0.1531,0.154,0.1429,0.1429,0.1429,0.1429,0,0.0964,0.0997,0.1011,0.1057,0.1081,0.1108,0.1146,0.1182,0.1222,0.1247,0.1313,0.135,0.1398,0.1418,0.1432,0.1494,0.1494,0.1494,0.1475,0.1518,0.1539,0.1549,0.1431,0.1431,0.143,0.143,0,0,0.0962,0.1009,0.1019,0.1038,0.1096,0.1113,0.1162,0.1208,0.1247,0.1297,0.1344,0.1406,0.1432,0.1455,0.1478,0.1519,0.1588,0.1533,0.1535,0.1547,0.1683,0.1534,0.153,0.1609,0.1611,0.1612,0.1677,0,0.0968,0.1002,0.1031,0.1069,0.1089,0.1137,0.1176,0.1226,0.1277,0.1333,0.138,0.1441,0.1443,0.1484,0.1522,0.1587,0.1616,0.157,0.1647,0.1649,0.1504,0.1537,0.1618,0.1684,0.1686,0.1688,0.1689,0,0.0974,0.0997,0.1028,0.1076,0.1092,0.1127,0.1199,0.124,0.1321,0.1365,0.1424,0.1465,0.1542,0.1538,0.1641,0.1619,0.165,0.1683,0.1686,0.1545,0.1517,0.1634,0.1706,0.1704,0.1703,0.1702,0.1701,0,0.0946,0.0996,0.1019,0.1034,0.1096,0.1133,0.1179,0.1258,0.1305,0.1398,0.145,0.1522,0.1587,0.1641,0.1702,0.1693,0.1804,0.1796,0.1679,0.1669,0.1775,0.1767,0.185,0.185,0.1849,0.1849,0.1849,0,0.0933,0.0956,0.1013,0.1025,0.1069,0.1124,0.1187,0.1246,0.1341,0.1397,0.147,0.1521,0.1624,0.1689,0.1724,0.1724,0.182,0.1681,0.1675,0.1781,0.1774,0.1781,0.1772,0.1852,0.1851,0.1851,0.185,0,0.0894,0.0932,0.096,0.1028,0.1057,0.1092,0.1193,0.1233,0.1337,0.1418,0.1457,0.1563,0.1637,0.17,0.1798,0.1742,0.1766,0.1734,0.1839,0.1839,0.1596,0.1588,0.1613,0.1608,0.1604,0.1601,0.1598,0,0.0868,0.088,0.0951,0.0978,0.1016,0.1078,0.1121,0.1225,0.1267,0.1422,0.1449,0.156,0.1609,0.1629,0.1694,0.172,0.1695,0.1683,0.1631,0.1579,0.1573,0.1571,0.1568,0.1592,0.1591,0.159,0.1589,0,0.0819,0.0857,0.0886,0.0935,0.0983,0.1019,0.1092,0.112,0.1237,0.1343,0.1413,0.1449,0.1512,0.1554,0.1573,0.159,0.1681,0.1641,0.1649,0.16,0.1554,0.1551,0.1553,0.1575,0.1577,0.1578,0.1579,0,0.0792,0.0796,0.0843,0.0881,0.0935,0.0952,0.0994,0.1048,0.1108,0.1277,0.1295,0.1409,0.1509,0.1486,0.1513,0.1504,0.1476,0.142,0.1439,0.1455,0.1366,0.1281,0.1213,0,0,0,0,0,0.0756,0.0755,0.0783,0.0814,0.0863,0.0893,0.0969,0.1012,0.1124,0.1142,0.1222,0.1273,0.1309,0.1358,0.1316,0.1416,0.1468,0.1355,0.141,0.1498,0.1514,0.1419,0,0,0,0,0,0,0.0727,0.0754,0.0757,0.0754,0.0765,0.08,0.0846,0.0921,0.0932,0.1061,0.109,0.118,0.1234,0.1331,0.1293,0.1303,0.1304,0.142,0.1416,0.1489,0.1503,0.1516,0.1424,0,0,0,0,0]},{"header":{"parameterUnit":"m.s-1","parameterCategory":2,"la1":30.2991,"la2":30.254,"lo1":-89.0895,"lo2":-89.0444,"dy":0.0017,"dx":0.0017,"nx":28,"ny":28,"refTime":"2024-04-11T03:00:00:Z","depth":"4","parameterNumber":3,"parameterNumberName":"V-component_of_CURRENTS"},"data":[0,0,0,0,0,0,0,0,0,0,0,0,0,0,0,0,0,0,0,0,0,0,0,0,0,0,0,0,0,0,0,0,0,0,0,0,0,0,0,0,0,0,0,0,0,0,0,0,0,0,0,0,0,0,0,0,0,0,0.0307,0.0308,0,0.0326,0.0326,0.0327,0.0337,0.0337,0.0337,0.0337,0.0326,0.0326,0.0326,0,0,0,0,0,0,0,0,0,0,0,0,0,0.027,0.0271,0.0307,0.0308,0.0308,0.0326,0.0326,0.0327,0.0337,0.0337,0.0337,0.0337,0.0326,0.0326,0.0326,0,0,0,0,0,0,0,0,0,0,0,0,0,0.0288,0.0271,0.0307,0.0315,0.0316,0.0326,0.0326,0.0327,0.0337,0.0337,0.0337,0.0337,0.0326,0.0326,0.0326,0.0324,0,0,0.0324,0.0324,0,0,0,0,0,0,0,0,0.0287,0.0289,0.0314,0.0314,0.0315,0.0329,0.0309,0.0324,0.0337,0.033,0.0337,0.0337,0.0324,0.0324,0.0329,0.0323,0.0323,0.0324,0.0324,0.0324,0.0324,0,0,0,0,0,0,0,0.0286,0.0288,0.0315,0.0314,0.0315,0.0313,0.0316,0.0312,0.0327,0.033,0.0331,0.0332,0.0324,0.0329,0.0328,0.0322,0.0324,0.0324,0.0324,0.0323,0.0322,0.0322,0,0,0,0,0,0,0.0283,0.0287,0.0315,0.0316,0.03,0.0314,0.0317,0.0325,0.0327,0.0328,0.0332,0.0333,0.033,0.0329,0.0328,0.0338,0.0324,0.0323,0.0323,0.0322,0.0322,0.0322,0,0,0,0,0,0,0.0282,0.0285,0.0314,0.0301,0.0305,0.0315,0.0323,0.0325,0.0335,0.0329,0.0329,0.034,0.033,0.0328,0.0329,0.0337,0.0323,0.0323,0.0322,0.0322,0.0322,0.035,0,0,0,0,0,0,0.0281,0.0285,0.0293,0.0301,0.0305,0.0323,0.0324,0.0326,0.0335,0.0336,0.0336,0.0335,0.033,0.033,0.0329,0.0336,0.0323,0.0321,0.0322,0.0322,0.0349,0.0351,0.0353,0,0,0,0,0,0.028,0.0289,0.0294,0.0297,0.0315,0.0323,0.0325,0.0332,0.0336,0.0341,0.0341,0.0335,0.0332,0.033,0.0329,0.0336,0.0321,0.0322,0.0322,0.0348,0.035,0.0353,0,0,0,0,0,0,0.0277,0.0291,0.0297,0.0311,0.0317,0.0325,0.0332,0.0336,0.0342,0.0342,0.0338,0.0337,0.0341,0.0333,0.0332,0.0336,0.0325,0.0325,0.0345,0.0347,0.035,0.0356,0.0322,0,0,0,0,0,0.0281,0.0292,0.0302,0.0313,0.0318,0.0326,0.0332,0.0335,0.0339,0.0343,0.0344,0.0342,0.0341,0.0341,0.0337,0.034,0.0321,0.0343,0.0345,0.0347,0.0351,0.0329,0.0329,0.0324,0.0324,0.0324,0,0,0.0283,0.0291,0.0299,0.0313,0.0321,0.0333,0.033,0.0339,0.0351,0.0339,0.0357,0.035,0.0343,0.0348,0.0348,0.0343,0.0337,0.0348,0.035,0.0353,0.0329,0.033,0.033,0.0324,0.0324,0.0324,0,0,0.029,0.0301,0.0313,0.0321,0.0332,0.0338,0.0341,0.0352,0.036,0.0371,0.0366,0.0366,0.0367,0.0365,0.0363,0.0374,0.0349,0.0371,0.0389,0.0367,0.0367,0.0367,0.0335,0.0332,0.0373,0.0373,0.0373,0,0.0289,0.0311,0.0317,0.0329,0.0341,0.0342,0.0358,0.0366,0.0375,0.0382,0.0379,0.0382,0.0377,0.0381,0.0387,0.038,0.0358,0.038,0.037,0.037,0.0369,0.0336,0.0332,0.0374,0.0374,0.0374,0.0374,0,0.0306,0.0325,0.0332,0.0352,0.0363,0.0375,0.0387,0.0398,0.0406,0.0411,0.0419,0.0411,0.0412,0.0409,0.0403,0.04,0.038,0.0375,0.0364,0.0371,0.0336,0.0331,0.0376,0.0376,0.0375,0.0375,0,0,0.03,0.0337,0.034,0.036,0.0378,0.0391,0.041,0.0429,0.0444,0.0445,0.0461,0.0458,0.0448,0.0445,0.0434,0.0418,0.0393,0.0397,0.0396,0.0366,0.0333,0.0308,0.03,0.0383,0.0383,0.0383,0.0307,0,0.0312,0.0345,0.036,0.0395,0.0416,0.0428,0.0449,0.0462,0.0472,0.0484,0.0472,0.048,0.0463,0.0464,0.0445,0.041,0.0384,0.0414,0.033,0.0327,0.0305,0.0296,0.0381,0.0303,0.0302,0.0301,0.0301,0,0.0325,0.0348,0.0386,0.0428,0.0439,0.0459,0.0494,0.0512,0.0523,0.0528,0.0525,0.0513,0.0496,0.048,0.0416,0.0434,0.0386,0.0354,0.035,0.0315,0.0294,0.0295,0.0292,0.0293,0.0294,0.0294,0.0295,0,0.0326,0.0368,0.0402,0.0415,0.0458,0.0481,0.0505,0.0526,0.0552,0.0556,0.0565,0.0537,0.0527,0.0469,0.0401,0.0406,0.0321,0.0318,0.0246,0.0243,0.0277,0.0278,0.0266,0.0266,0.0266,0.0266,0.0267,0,0.0334,0.0363,0.0408,0.0429,0.0474,0.0497,0.0544,0.0559,0.0586,0.0613,0.0589,0.059,0.0524,0.047,0.0402,0.0306,0.0316,0.0245,0.0223,0.0289,0.0292,0.0273,0.0275,0.0263,0.0264,0.0265,0.0265,0,0.0332,0.036,0.0405,0.0458,0.0479,0.0513,0.0582,0.0614,0.0629,0.066,0.0664,0.063,0.0554,0.0474,0.0373,0.0309,0.0221,0.0183,0.0249,0.0233,0.0156,0.016,0.0096,0.0094,0.0093,0.0092,0.0091,0,0.0335,0.0357,0.0427,0.0462,0.0492,0.0549,0.0592,0.0634,0.0668,0.0681,0.0692,0.0635,0.0596,0.0431,0.0342,0.0197,0.0179,0.0125,0.015,0.0153,0.0139,0.0145,0.0151,0.0089,0.0089,0.0088,0.0088,0,0.0342,0.0367,0.0408,0.0478,0.0533,0.0595,0.0656,0.0683,0.0723,0.0736,0.0711,0.0633,0.0541,0.0423,0.0306,0.0207,0.0158,0.0111,0.0113,0.0137,0.0144,0.0132,0.014,0.0084,0.0084,0.0085,0.0085,0,0.0348,0.0375,0.0431,0.0492,0.0561,0.0622,0.0657,0.0695,0.0728,0.074,0.0725,0.0634,0.0587,0.0426,0.032,0.0217,0.0194,0.0161,0.016,0.0164,0.0208,0.0229,0.0172,0,0,0,0,0,0.0352,0.0385,0.0442,0.0511,0.0578,0.0619,0.0692,0.0721,0.0754,0.0739,0.0737,0.0651,0.0495,0.0428,0.032,0.0292,0.0172,0.016,0.0133,0.0059,0.0064,0.0103,0,0,0,0,0,0,0.0357,0.0408,0.0437,0.0514,0.056,0.0636,0.0684,0.0709,0.0703,0.0715,0.0635,0.0607,0.0458,0.0551,0.031,0.0279,0.0244,0.0093,0.009,0.0056,0.0061,0.0065,0.0107,0,0,0,0,0]}]]